Location: Bergheim
(50.9593°N, 6.6400°E)
Time: 02:42:28
(UTC+01:00)

ISS - Pass Details

Date: 02 October 2020
Orbit: 417 x 420 km, 51.6° (Epoch: 25 October)

Event Time Altitude Azimuth Distance (km) Brightness Sun altitude
Rises 21:54:20 0° 281° (W) 2,370 1.2 -26.1°
Reaches altitude 10° 21:57:08 10° 256° (WSW) 1,502 -0.4 -26.5°
Enters shadow 21:57:54 13° 244° (WSW) 1,353 -0.8 -26.6°
